GFSSW_700_spd_000.txt.gz
Wind_Speed
13 13 13 12 11 10 10 9 9 8 8 7 7 6 4 4 4 3 3 4 5 7 7 6 6 6 7 7 7 6 8 7 10 15 11 18 15 14 13 15 16 19 18 20 20
14 15 15 14 14 14 13 12 11 10 10 10 10 9 9 8 8 6 6 5 4 4 5 6 7 8 8 8 8 9 12 10 14 16 19 20 19 18 17 14 16 17 18 19 19
16 16 16 16 16 16 16 15 15 14 13 12 12 12 12 12 11 9 11 7 8 8 7 8 9 10 11 12 12 15 16 12 16 21 19 20 22 19 22 20 18 19 19 20 19
18 18 18 19 19 19 18 18 18 17 17 16 16 15 15 14 9 6 7 10 12 12 12 12 13 13 13 16 15 19 19 21 22 23 19 20 23 25 25 20 21 22 21 26 23
20 20 20 20 20 20 21 21 21 20 20 19 19 19 18 18 16 14 16 16 16 15 16 16 16 17 16 12 20 25 21 22 24 27 24 26 24 26 25 19 19 22 24 29 27
22 22 22 22 22 22 23 23 23 23 23 23 22 22 22 22 19 17 17 18 18 18 18 19 19 19 22 21 24 26 26 28 27 30 32 30 27 28 21 20 20 23 26 25 29
25 25 25 24 24 24 24 25 25 25 26 26 26 27 27 25 23 22 21 21 21 22 21 20 21 21 23 25 26 20 32 34 32 28 31 30 28 31 22 23 27 23 25 29 29
28 28 27 26 26 26 25 26 27 27 27 29 30 31 31 30 27 26 24 24 25 24 24 23 25 24 24 28 29 31 32 30 25 22 25 23 38 30 25 28 32 32 33 32 37
29 29 30 30 30 29 28 28 28 29 29 30 32 33 35 33 31 28 29 29 29 29 28 29 29 28 30 29 30 26 24 27 26 27 29 33 40 33 33 33 36 38 40 39 37
29 30 31 32 32 32 31 31 31 33 33 33 35 34 32 29 28 27 25 25 27 27 29 34 32 31 36 30 26 27 24 30 39 36 30 37 45 42 39 40 41 42 43 44 38
30 31 30 30 31 32 32 33 34 35 37 35 35 36 33 28 26 27 26 27 30 33 35 33 34 39 42 35 31 32 37 39 48 41 33 40 45 45 43 45 48 46 40 31 35
29 31 31 30 30 29 29 30 30 34 42 39 39 41 40 37 38 37 35 39 40 39 32 37 45 43 39 39 38 40 42 46 47 46 37 33 42 47 46 51 45 38 39 31 32
29 30 31 31 30 28 28 28 30 33 43 49 43 45 42 41 45 42 41 43 45 46 45 52 53 41 36 37 36 46 46 51 51 45 39 44 47 48 47 42 40 47 40 29 24
26 27 29 31 31 29 27 26 28 31 39 42 36 40 38 39 47 47 47 48 49 50 46 46 47 48 48 50 43 54 44 44 42 36 23 24 27 43 40 42 42 39 11 18 26
28 29 27 28 29 28 27 25 24 25 9 14 14 19 19 23 31 29 36 45 51 52 45 45 34 32 34 40 32 44 38 34 33 33 34 33 30 32 32 34 27 9 16 19 22
33 32 32 34 32 28 26 22 21 18 11 9 10 11 20 25 29 32 28 31 36 41 48 51 49 48 46 43 41 40 36 31 31 33 16 29 28 36 24 24 21 14 19 22 29
45 41 38 40 38 31 26 22 16 17 11 20 23 28 27 26 30 31 33 36 33 25 36 38 37 38 38 35 38 37 26 7 5 4 17 23 29 44 30 28 28 28 27 24 35
39 39 40 42 35 33 36 25 24 27 36 38 35 36 32 26 31 34 37 40 39 38 39 26 27 29 35 33 31 28 32 16 7 10 24 27 19 32 39 38 38 42 29 24 27
39 37 43 40 41 39 34 29 50 36 32 31 34 35 37 34 35 31 41 48 47 41 40 29 40 36 33 33 29 28 28 35 30 36 12 37 45 51 38 30 30 26 26 26 22
44 42 45 37 41 38 38 46 53 44 35 26 39 30 34 32 34 33 39 42 40 44 44 45 33 46 40 39 40 33 30 14 15 2 7 29 35 39 39 35 31 33 25 21 20
43 43 51 44 37 39 48 52 59 51 44 40 41 38 34 33 29 31 39 38 28 23 28 34 35 42 33 42 43 40 41 32 23 25 7 10 28 8 9 10 12 20 19 20 23
40 37 46 44 40 44 54 60 50 54 45 42 49 51 50 49 50 45 46 38 30 21 32 35 30 28 41 45 42 38 38 39 31 29 21 32 47 34 29 23 10 5 25 30 38
42 42 48 49 41 47 50 55 58 59 53 50 47 47 49 46 36 40 44 45 46 29 16 12 14 19 31 45 43 45 40 46 43 42 37 28 44 61 60 54 55 43 35 41 50
42 42 41 47 55 55 52 55 53 49 51 50 55 50 46 55 49 45 48 55 54 46 51 47 47 26 22 33 31 32 35 43 42 31 43 47 52 67 70 68 70 68 58 54 48
42 48 46 37 36 47 52 53 55 59 62 63 43 41 51 51 47 44 52 57 56 51 44 46 39 54 63 64 65 59 56 54 50 43 45 52 55 61 71 66 69 68 60 49 56
41 37 39 42 44 47 48 51 58 62 54 51 50 51 58 50 58 59 50 49 57 51 42 46 43 44 48 48 60 68 67 62 61 66 64 67 65 72 71 74 65 62 51 51 53
34 36 38 45 46 45 47 44 42 41 57 58 53 54 54 57 57 55 60 62 57 51 44 46 43 35 40 46 53 45 65 66 67 62 65 61 69 61 66 65 60 50 55 51 56

GFSSW_700_spd_003.txt.gz
Wind_Speed
12 11 11 11 10 10 9 9 8 7 6 6 6 5 4 5 4 3 3 2 2 1 1 1 2 2 4 5 6 7 8 8 8 10 16 18 18 16 16 16 17 17 17 16 15
14 13 12 12 12 11 11 11 10 10 10 9 9 9 9 8 9 8 9 7 6 5 5 5 6 6 7 8 9 10 14 10 9 12 17 22 23 21 21 18 19 18 17 17 16
16 16 15 15 14 14 14 13 14 13 14 13 13 13 13 12 12 11 13 12 10 9 9 10 12 12 11 13 11 15 16 13 17 18 20 22 22 23 23 22 17 21 20 21 20
17 17 17 17 17 17 16 16 16 17 17 17 17 17 17 15 9 6 7 11 14 13 13 15 16 15 16 17 16 21 16 19 21 20 22 22 25 25 28 21 23 22 23 24 21
19 19 19 19 19 19 19 19 19 19 19 20 20 20 21 20 15 16 16 18 18 18 17 18 19 19 20 18 19 25 21 22 23 23 26 27 27 28 29 21 22 21 25 27 25
22 21 21 21 21 21 21 21 22 22 22 23 24 24 25 25 20 19 18 18 18 19 20 21 21 22 24 24 24 29 28 25 26 27 31 31 25 28 19 17 20 22 22 23 26
25 25 24 24 24 23 23 23 24 24 24 26 28 28 30 27 26 24 24 23 22 22 23 24 23 25 25 28 28 25 27 33 28 26 20 21 27 27 25 24 24 24 24 28 28
27 27 27 27 27 26 25 25 26 26 27 28 30 32 33 31 30 28 27 27 27 26 25 26 27 28 28 32 32 32 33 37 31 26 21 22 37 35 31 30 29 32 33 33 33
27 27 28 28 29 30 29 29 29 30 30 30 32 34 36 34 30 28 27 27 28 30 30 32 33 31 32 36 32 35 36 37 39 32 25 30 39 43 38 36 34 35 37 39 42
27 28 28 28 29 29 30 31 32 34 35 35 36 36 32 28 26 24 25 27 28 29 30 34 33 33 36 40 34 41 29 33 39 42 36 35 47 43 40 41 39 40 40 43 46
26 26 27 27 28 28 28 29 32 33 34 33 34 35 30 28 31 30 31 32 34 35 34 35 38 39 41 43 41 37 39 40 47 44 44 47 47 50 48 41 42 43 45 45 38
25 25 25 28 27 26 26 27 29 33 41 36 35 39 38 36 39 35 34 39 42 44 40 44 50 45 38 38 39 39 43 46 50 46 47 47 51 53 48 49 45 44 47 40 36
25 24 23 25 24 25 25 27 29 33 41 47 40 42 39 41 45 41 41 43 47 49 49 53 54 45 42 41 36 46 42 48 52 52 56 55 59 54 49 41 40 46 42 39 21
26 26 24 23 22 22 20 21 24 30 38 36 24 26 26 31 43 43 44 46 50 53 51 45 48 45 46 48 44 56 51 53 51 41 35 36 29 41 39 42 43 44 39 14 16
28 31 29 27 25 25 24 24 22 25 8 14 9 8 9 17 24 22 22 31 43 49 47 52 44 41 36 43 34 46 40 41 43 38 37 31 25 43 29 32 40 25 18 22 23
35 35 34 33 32 26 28 25 24 16 11 11 10 11 16 19 23 27 28 28 30 34 44 50 49 46 44 40 35 39 40 36 35 36 20 26 24 40 32 25 21 23 21 21 23
39 38 39 38 36 33 33 24 17 14 10 12 14 21 23 25 27 27 32 37 32 26 37 40 41 38 35 41 43 44 42 9 5 2 14 20 29 50 36 37 35 30 30 32 32
39 38 42 41 37 28 30 29 17 17 13 27 32 35 36 32 34 36 34 41 39 39 39 32 37 33 37 39 38 37 37 18 7 9 21 27 20 37 29 35 48 43 32 33 32
41 40 41 37 37 32 27 28 29 31 24 34 31 36 46 31 28 31 34 42 41 40 43 36 47 46 39 35 32 28 28 37 28 33 8 33 42 52 42 28 19 27 26 25 26
42 43 47 37 32 29 32 45 47 40 40 38 34 28 39 39 28 16 25 26 31 34 42 43 35 49 42 36 37 33 29 14 15 3 7 26 26 35 37 28 16 25 23 22 25
35 36 44 35 32 37 45 50 52 51 40 38 39 41 44 45 40 36 27 33 22 16 14 21 33 46 31 38 34 33 39 35 28 26 12 14 28 32 12 16 29 29 25 21 25
34 35 37 34 30 37 46 50 51 52 45 39 41 39 40 39 40 39 41 44 37 28 30 34 16 20 29 30 37 30 24 32 26 18 22 25 32 57 50 19 15 2 5 5 16
37 37 38 33 35 38 42 44 42 48 45 48 38 42 43 49 39 37 40 48 43 39 43 34 24 16 23 39 38 42 49 40 32 34 29 20 32 63 60 60 53 48 39 37 38
35 34 37 42 46 47 45 47 47 45 53 51 49 49 49 50 48 50 53 60 61 50 44 44 43 36 28 37 39 28 33 36 35 29 43 42 56 58 51 59 63 64 55 57 60
35 38 39 28 36 41 40 42 43 43 42 43 44 42 40 49 54 59 62 64 60 59 54 42 42 44 55 58 55 58 54 60 62 62 46 59 56 60 58 64 57 50 51 58 60
29 34 37 41 41 35 36 43 46 48 45 51 56 48 44 48 56 58 55 51 56 46 35 47 57 53 53 62 70 71 75 73 74 77 71 67 61 74 66 54 51 56 68 65 63
31 29 31 36 38 36 43 34 31 32 39 38 44 41 35 49 56 55 50 45 40 38 42 35 42 37 50 54 57 47 65 69 70 66 65 61 71 65 69 70 63 67 62 63 58

GFSSW_700_spd_006.txt.gz
Wind_Speed
12 11 11 9 8 8 7 7 7 6 6 6 6 6 6 7 7 7 7 7 6 5 5 4 3 4 5 7 8 10 10 8 10 9 11 13 17 19 21 20 20 18 17 14 14
14 13 13 12 12 11 10 10 10 10 10 11 10 10 11 11 12 11 14 12 11 10 9 10 9 9 10 11 12 13 16 10 11 12 16 17 19 22 24 21 22 21 18 19 19
16 15 15 14 14 14 14 13 14 14 14 14 14 14 14 14 14 14 14 16 16 15 13 14 13 13 14 17 14 19 18 13 14 17 19 19 21 24 24 23 18 21 22 23 22
17 17 17 16 16 16 16 16 16 17 17 17 17 18 17 17 10 9 8 10 15 18 17 18 19 18 19 21 19 26 22 19 19 19 21 20 22 25 27 23 25 24 24 25 23
20 20 19 19 18 18 18 18 19 19 20 21 21 21 21 21 15 18 19 18 19 20 21 22 23 21 24 23 22 29 27 25 25 26 23 23 26 28 25 15 17 21 24 23 21
23 23 23 22 22 21 21 21 21 22 22 24 24 25 25 26 21 19 20 19 20 21 21 23 24 24 27 29 27 31 33 30 30 28 25 31 27 25 22 15 19 22 23 22 24
26 26 25 25 24 24 24 24 24 25 24 26 27 28 29 25 26 25 24 24 25 25 26 25 26 27 28 31 32 32 32 32 34 33 31 26 35 36 23 25 27 23 24 26 28
27 26 26 26 26 26 27 26 27 28 28 28 29 31 34 30 28 27 26 27 28 29 30 31 31 29 30 32 36 36 37 40 38 38 34 32 43 38 32 32 33 30 29 29 31
27 27 27 27 27 27 27 28 29 31 32 33 34 34 37 32 28 23 22 23 24 27 30 33 34 32 31 37 36 40 40 45 45 44 39 35 44 42 39 40 37 37 37 36 35
26 26 26 27 26 26 27 27 28 29 30 32 35 35 34 27 22 20 22 23 25 28 30 32 32 32 33 40 34 45 43 43 43 44 47 43 51 50 44 45 44 46 44 42 39
25 25 25 26 25 25 24 26 27 29 30 30 31 33 34 33 35 33 32 32 33 34 34 33 37 38 37 39 43 45 45 47 45 42 50 54 57 55 51 53 54 49 45 43 41
24 23 22 22 23 23 24 25 28 31 35 32 33 38 32 32 37 34 34 37 39 40 36 42 50 46 41 43 44 44 47 49 53 48 50 55 61 58 57 57 54 51 46 40 38
24 24 22 22 22 22 21 21 24 28 37 40 36 40 35 35 40 36 38 41 45 45 45 51 50 42 40 43 41 51 47 54 55 50 50 54 66 62 52 47 44 42 39 36 34
28 27 25 25 24 23 23 23 24 28 37 36 18 18 12 15 26 22 28 40 46 48 47 44 44 41 39 44 43 58 49 52 48 39 33 34 41 49 56 50 44 38 31 23 28
32 29 26 24 24 25 27 28 27 26 8 13 11 9 10 12 14 17 18 21 33 37 39 42 38 38 36 41 30 45 36 41 42 44 41 26 19 36 36 38 28 13 15 27 19
30 31 30 31 29 29 29 29 27 20 11 9 10 12 15 19 22 22 18 22 23 27 32 37 36 41 39 37 40 34 32 34 38 35 19 24 25 51 17 15 15 25 31 28 31
36 37 40 36 34 29 28 26 20 15 9 9 12 17 19 15 16 17 20 22 23 25 35 38 41 40 34 33 35 37 36 8 5 3 13 19 26 50 38 37 28 30 40 36 34
35 37 39 37 35 32 25 23 23 19 29 24 25 24 31 28 30 26 30 33 32 34 39 31 42 33 33 31 33 32 34 21 7 10 23 29 23 40 37 34 40 32 26 31 35
40 39 45 38 34 33 28 33 36 34 33 31 31 31 36 30 27 27 32 37 35 31 35 28 46 42 42 39 34 34 28 39 30 36 8 33 45 52 39 14 19 21 18 24 26
43 45 48 38 35 32 31 47 41 41 41 28 29 26 31 28 24 25 28 25 19 24 26 33 30 45 34 28 35 36 34 17 14 5 8 22 25 38 37 27 19 24 19 24 18
36 37 42 33 31 32 44 48 48 50 42 38 39 35 43 39 29 26 26 33 28 23 21 28 25 45 35 34 35 33 36 37 30 22 12 16 25 44 42 42 31 22 36 37 29
34 36 36 34 28 37 43 45 47 50 46 35 38 44 44 47 40 33 32 26 23 39 41 32 23 24 47 42 30 29 32 38 28 20 27 22 24 57 52 63 56 46 28 20 24
34 35 35 31 35 38 43 43 43 43 44 46 42 42 41 42 39 38 39 45 46 43 37 35 33 31 27 40 45 57 50 39 41 42 39 26 32 52 57 64 49 56 54 49 47
32 34 35 36 42 42 42 42 45 47 43 44 39 41 43 45 51 51 52 48 48 39 49 45 46 45 32 39 36 20 37 42 46 40 41 43 49 58 64 60 51 60 69 68 60
27 32 34 28 32 39 40 44 45 45 45 45 42 43 44 42 45 52 44 44 43 47 46 41 50 50 59 59 55 61 62 61 53 58 54 63 60 55 65 66 67 76 69 72 70
29 30 32 35 36 34 38 46 43 46 40 40 39 42 38 36 44 47 50 42 46 43 30 27 31 48 54 63 69 65 65 68 68 68 72 64 59 69 72 71 80 71 59 60 57
31 31 33 37 38 39 43 40 36 32 38 39 42 40 39 39 45 45 38 42 38 45 54 53 45 43 38 28 43 39 52 64 74 68 61 57 69 52 52 51 51 53 54 47 44

GFSSW_700_spd_009.txt.gz
Wind_Speed
14 12 11 10 9 9 9 9 9 9 9 9 9 9 9 10 10 10 9 10 10 9 9 8 8 8 9 10 12 12 15 14 13 13 11 14 15 16 20 21 19 19 17 16 18
16 16 15 14 13 12 12 11 12 12 12 12 13 13 13 14 14 13 15 15 15 14 14 14 13 13 13 14 16 16 20 18 13 15 18 19 21 20 24 22 23 21 19 19 20
18 17 17 17 16 16 15 15 15 16 16 16 16 16 16 17 16 18 17 17 18 19 18 19 18 18 19 19 18 23 24 19 18 19 21 23 22 22 25 24 21 25 22 25 24
20 19 19 19 18 18 18 18 19 19 19 19 19 19 18 18 12 11 12 13 14 15 20 22 22 23 24 24 23 29 27 23 24 22 24 24 26 23 27 22 20 19 21 23 24
22 22 21 21 21 20 20 21 21 21 22 22 22 22 22 23 17 18 19 20 20 21 21 22 26 26 29 29 27 32 31 31 28 32 29 28 26 26 31 18 19 19 21 21 22
25 24 24 24 24 24 24 23 23 24 24 24 25 25 26 28 21 21 21 19 19 21 22 24 25 25 30 32 32 35 35 35 35 35 35 34 29 34 31 25 21 22 25 26 25
26 26 26 25 25 26 26 26 26 26 26 27 28 29 30 25 25 25 24 24 25 26 26 26 27 27 29 33 35 35 37 37 38 38 40 36 37 41 36 31 28 30 28 28 28
27 27 27 27 26 27 27 28 28 28 29 29 31 32 35 29 28 27 26 27 29 30 30 31 32 31 31 34 39 39 40 44 40 42 45 42 46 42 39 35 38 35 36 33 32
26 26 26 27 27 27 28 29 29 29 30 30 32 34 37 32 29 23 22 24 25 27 27 29 31 31 30 37 37 40 42 46 45 39 46 45 46 45 44 45 44 43 42 42 41
25 26 26 26 27 26 27 27 28 30 30 31 33 32 31 26 21 21 22 23 25 28 29 29 30 30 30 35 34 41 42 43 45 39 49 52 56 51 47 50 50 49 49 48 47
26 24 26 25 25 25 24 26 28 31 31 30 29 31 31 30 30 28 30 33 32 33 33 35 36 38 37 35 37 39 41 47 48 44 51 56 60 58 52 51 53 53 51 49 44
24 23 23 22 23 22 21 22 24 28 34 32 33 36 31 33 36 33 32 36 38 38 34 39 46 41 36 37 36 37 42 47 53 48 49 55 63 57 55 54 49 47 42 40 37
26 25 25 24 23 24 22 23 25 28 37 40 36 37 32 37 40 37 36 38 40 40 40 46 47 40 39 41 41 49 47 52 54 48 47 52 64 45 40 40 42 37 34 27 26
31 31 29 28 28 27 26 26 27 30 36 34 22 20 19 25 29 29 29 35 40 42 43 38 40 37 34 36 33 45 35 42 42 41 30 26 33 36 44 22 41 14 5 15 24
34 36 33 30 28 27 27 26 25 25 8 11 11 12 12 12 10 9 10 18 27 30 34 38 33 32 30 33 26 38 29 31 36 37 38 29 17 25 26 31 12 9 16 30 22
33 34 34 30 27 30 28 27 25 17 11 6 9 11 14 16 18 18 17 18 19 23 27 33 30 31 30 29 27 28 29 27 31 31 14 26 24 49 20 9 9 17 29 26 28
33 37 39 33 34 31 32 31 21 15 9 8 14 18 23 22 21 19 16 18 16 17 28 33 37 39 35 31 29 28 28 8 4 4 12 8 17 53 35 39 34 22 29 33 19
38 37 36 34 30 30 28 28 20 16 20 21 22 23 23 21 25 26 30 31 28 29 37 33 39 28 19 18 21 21 21 16 7 8 20 27 22 48 45 42 35 36 34 17 19
43 40 40 36 33 29 28 35 32 33 38 38 37 35 41 35 28 27 33 39 36 34 36 33 43 30 27 26 27 27 30 39 38 39 9 33 47 58 56 48 34 11 21 21 32
39 43 49 40 36 34 31 49 47 44 43 32 29 21 27 16 14 16 22 30 27 24 26 31 33 33 29 27 30 29 30 17 13 4 11 15 39 40 39 38 38 46 36 32 28
36 38 41 34 30 34 45 54 49 49 45 36 38 36 44 41 34 32 32 39 33 28 27 25 20 38 26 37 41 40 37 37 31 27 15 17 18 56 61 47 42 43 40 38 40
36 39 34 33 29 39 46 49 50 52 42 34 37 44 42 42 39 33 31 32 43 36 33 33 28 23 45 49 38 33 31 30 16 18 32 37 31 49 53 63 63 61 47 48 47
36 38 37 34 35 39 41 44 42 46 45 38 37 42 42 41 40 44 45 42 29 34 32 25 24 28 25 34 34 36 39 44 49 51 42 32 41 53 60 64 61 57 49 45 45
33 34 36 36 42 39 39 41 42 45 41 42 41 42 41 43 45 46 46 43 40 39 39 37 42 40 26 27 43 48 48 46 43 34 45 45 50 44 54 61 64 54 42 42 36
29 32 34 28 32 38 40 45 43 43 41 35 30 36 34 37 40 39 42 45 45 41 39 39 41 41 47 44 40 40 45 52 58 55 49 50 47 49 59 58 53 59 55 49 52
32 33 36 37 38 37 37 39 42 45 42 44 44 45 44 44 34 34 32 33 31 31 28 29 43 45 46 55 49 40 47 53 41 43 56 57 60 51 51 49 53 54 56 55 54
35 34 34 38 39 39 43 39 31 32 36 38 41 34 40 41 43 46 45 49 52 43 46 41 33 29 37 40 35 31 52 44 42 42 46 33 23 31 34 40 37 46 51 53 45

GFSSW_700_spd_015.txt.gz
Wind_Speed
13 13 12 12 12 11 12 12 11 11 12 13 13 13 13 14 12 12 12 12 13 14 13 13 13 13 14 13 14 14 16 18 16 15 15 16 18 19 22 18 18 15 15 17 18
15 15 15 14 15 14 14 14 15 15 15 15 15 15 16 16 16 16 17 17 16 17 17 17 17 17 18 18 19 20 22 22 19 20 22 22 24 22 26 22 15 18 16 19 18
17 16 16 16 16 16 16 16 17 17 17 17 18 19 19 19 18 19 17 15 15 15 17 18 19 20 23 21 22 27 27 22 26 23 25 25 25 25 28 25 17 20 20 18 18
18 18 18 18 18 19 19 19 19 19 19 20 20 21 21 21 14 12 15 15 14 16 17 18 19 19 22 23 24 30 31 27 29 27 28 28 29 30 29 24 21 19 24 22 20
20 20 20 20 21 21 21 21 21 22 22 22 22 23 23 25 19 20 22 22 22 21 21 21 22 21 24 26 26 32 32 32 31 33 32 31 29 33 33 24 24 24 26 25 25
23 23 23 23 23 23 23 23 23 23 23 23 24 25 25 27 21 19 19 20 20 21 21 22 24 25 28 29 30 35 34 34 36 35 34 34 33 38 31 27 29 28 27 27 28
25 25 26 26 26 26 27 27 26 26 26 25 26 27 28 23 26 26 24 24 26 26 27 26 28 29 30 31 33 33 35 37 38 39 40 36 39 39 33 33 31 30 30 29 28
25 25 26 26 26 27 27 27 27 27 27 27 28 30 31 28 28 28 27 27 29 30 31 31 32 32 31 32 37 37 39 42 37 35 38 36 43 36 35 39 39 35 35 36 33
26 25 25 25 26 26 27 27 27 26 26 26 27 28 31 28 26 22 21 22 23 26 28 29 30 29 26 29 34 33 35 39 36 33 41 39 46 43 38 41 43 41 39 38 37
26 26 25 25 26 26 27 28 28 28 26 26 27 27 22 18 16 19 19 19 22 24 27 30 32 31 29 31 33 39 37 35 37 36 43 49 53 48 43 43 44 43 40 34 32
26 26 25 25 25 26 25 26 28 30 30 27 24 26 25 26 27 28 29 30 32 32 31 32 34 33 32 31 32 35 39 42 42 39 44 49 53 48 44 41 37 35 33 27 20
26 25 25 25 25 25 26 26 27 32 38 31 31 33 31 31 34 31 31 35 36 37 35 37 40 34 34 31 31 34 37 42 47 40 41 46 51 46 38 35 34 31 20 15 9
26 25 26 26 25 26 27 28 29 33 40 43 38 38 34 35 40 37 38 40 42 42 41 41 37 33 36 36 36 41 40 41 41 36 39 44 41 19 32 31 13 17 17 3 2
28 28 28 27 27 28 30 31 32 32 35 34 15 12 12 19 26 28 33 38 42 43 42 36 37 32 28 28 23 33 24 30 31 30 17 24 16 32 17 16 14 10 8 9 14
23 26 26 27 25 23 26 25 24 24 7 9 4 6 8 8 8 8 9 14 24 29 29 24 22 24 27 29 21 27 19 24 30 32 33 19 17 19 23 2 13 14 4 18 23
25 24 26 25 27 25 22 22 20 12 9 4 3 5 7 9 12 13 13 15 16 17 21 25 28 31 28 19 16 21 25 27 27 28 12 20 17 5 4 11 10 9 10 29 33
29 28 28 26 25 25 23 22 15 10 4 6 7 9 14 21 23 24 24 26 21 18 27 34 29 28 26 31 27 22 20 7 5 2 8 7 16 24 8 17 26 21 29 30 20
29 32 31 29 27 26 25 19 16 12 19 16 18 23 22 23 27 31 30 31 33 34 38 30 38 28 30 29 20 22 25 16 6 6 14 26 21 32 27 26 29 20 7 9 18
34 35 36 30 34 32 29 32 21 23 22 26 26 31 34 22 17 24 28 36 38 37 33 26 40 34 30 28 23 25 32 39 36 33 13 28 39 55 41 10 3 16 21 20 24
38 39 41 32 30 27 27 40 32 31 33 31 29 23 34 32 24 14 22 20 30 18 16 16 25 29 25 36 39 34 32 15 13 3 9 13 19 36 28 26 30 27 34 34 34
34 34 35 29 25 25 33 38 42 38 35 35 31 27 28 30 36 33 25 29 24 34 32 36 33 41 21 25 28 28 32 33 30 22 5 7 15 41 27 36 41 38 38 35 37
30 30 28 25 23 28 34 35 32 35 29 26 28 30 32 34 39 40 40 41 42 42 37 31 26 28 42 41 36 28 33 31 19 11 18 18 18 43 30 25 34 42 37 41 43
29 26 26 27 28 31 32 32 31 34 34 34 33 35 35 33 31 30 30 33 28 28 24 23 16 17 17 31 28 26 36 38 36 32 27 18 14 20 23 37 35 45 48 56 56
23 21 22 26 29 28 27 32 31 33 35 31 33 30 33 34 34 39 36 32 39 41 38 39 39 31 29 28 22 27 30 34 28 21 28 27 30 31 33 46 53 53 57 53 52
25 26 28 21 23 21 23 27 30 32 31 30 25 27 26 27 28 33 34 32 25 28 30 32 33 35 37 40 40 39 40 41 39 41 30 37 42 51 50 49 49 49 48 49 49
27 28 30 29 29 29 27 34 34 33 32 36 33 37 36 35 39 44 42 43 42 38 34 28 29 28 31 34 34 43 52 55 56 56 47 44 38 41 35 37 37 42 45 43 41
28 29 29 31 30 30 32 32 33 33 31 34 35 31 33 30 30 35 38 42 42 36 36 37 41 37 40 41 34 27 47 42 43 48 47 43 38 34 36 35 36 37 34 33 34

GFSSW_700_spd_021.txt.gz
Wind_Speed
12 12 11 12 12 11 11 10 11 11 11 11 11 11 12 12 12 12 12 12 13 15 14 14 14 15 15 14 14 13 12 11 13 10 6 15 18 22 19 15 14 15 10 13 15
15 15 14 14 14 15 15 14 14 14 14 15 15 15 15 15 15 15 16 14 14 15 14 14 15 16 17 18 19 18 14 13 14 15 19 17 21 24 24 22 16 19 18 19 19
17 17 17 17 17 17 17 17 16 17 17 17 18 17 17 18 16 17 16 11 10 10 10 12 14 15 17 19 20 23 25 17 21 24 25 28 27 29 28 25 20 18 21 23 24
19 19 19 19 19 19 19 19 19 19 19 19 20 20 19 19 13 12 14 15 16 18 19 20 20 20 22 25 23 27 28 26 26 28 30 29 28 32 31 29 21 21 24 25 25
22 21 21 20 20 20 19 19 20 20 20 20 20 20 20 21 19 19 22 22 21 21 20 19 18 17 21 21 24 30 31 29 30 30 33 32 30 32 35 31 25 25 26 28 27
23 22 22 22 22 23 22 22 23 23 23 22 23 23 23 24 20 16 18 18 17 17 18 19 20 20 26 30 30 30 36 35 34 35 34 34 31 29 29 27 25 23 25 27 29
26 26 25 25 26 26 25 25 25 25 25 25 24 25 27 26 26 25 24 25 25 25 26 26 25 25 29 31 33 30 33 37 37 32 30 24 34 29 22 23 30 27 28 30 33
27 26 26 26 26 25 25 25 24 24 23 23 24 24 27 26 25 26 25 26 27 28 29 29 29 30 31 32 36 35 28 26 20 24 27 23 25 31 24 31 34 34 33 32 31
26 27 26 26 26 26 25 26 25 25 24 23 23 23 26 24 23 22 22 20 19 21 22 23 24 25 26 28 21 17 24 24 23 21 26 23 21 32 37 36 37 33 29 27 26
27 27 27 27 26 26 26 26 26 26 25 24 24 22 20 22 21 21 18 15 17 20 23 23 24 23 25 20 23 25 28 29 25 26 32 32 35 33 34 36 32 26 23 21 20
27 27 26 27 27 26 26 26 27 28 26 24 23 25 23 24 26 25 28 28 29 27 25 28 24 19 20 20 26 29 30 32 31 29 32 33 32 30 34 31 22 16 23 25 27
27 27 26 28 27 26 25 25 26 29 33 28 29 31 31 30 32 32 33 35 34 31 29 28 28 25 21 24 28 31 29 31 31 23 24 29 32 34 4 7 24 22 16 16 21
29 27 27 27 26 26 25 26 26 28 33 37 33 31 29 31 36 39 37 38 37 34 35 34 25 22 27 30 34 27 28 30 30 27 28 20 21 21 12 21 20 16 17 21 20
28 26 27 27 26 27 27 26 26 26 23 17 12 11 15 18 23 24 28 31 33 33 23 22 24 19 13 16 14 20 17 22 25 18 17 17 16 18 19 13 12 9 21 20 18
21 25 28 25 25 23 23 21 19 16 7 6 9 9 8 8 6 5 4 5 8 9 10 8 16 15 14 13 13 18 21 19 21 25 24 20 18 12 16 13 12 16 15 12 10
23 25 25 22 22 22 19 16 14 5 9 6 8 7 7 6 6 5 4 7 8 11 15 15 20 18 16 18 22 23 24 23 24 18 12 12 11 8 4 2 15 12 12 15 20
30 27 21 21 20 18 19 15 6 9 2 5 12 11 11 11 12 9 8 8 8 10 15 16 21 28 25 24 20 17 18 11 11 12 14 16 11 17 6 12 21 23 23 29 29
23 20 19 19 21 22 19 15 13 4 11 10 8 11 8 8 9 14 18 17 20 21 18 24 27 17 12 14 18 20 15 13 10 14 19 28 19 22 23 23 23 30 35 39 32
19 17 16 19 20 21 20 18 14 11 17 18 22 25 22 17 21 19 21 22 18 20 18 17 16 10 18 27 23 16 19 19 19 29 14 28 37 35 33 34 33 37 41 41 35
18 25 22 24 24 24 25 27 17 19 28 24 20 18 19 14 14 13 15 13 12 10 11 11 19 16 13 17 19 19 21 16 12 5 15 17 29 27 26 26 32 35 36 34 33
25 26 27 29 29 28 36 33 28 29 30 24 21 25 20 17 18 18 13 15 14 16 20 18 18 26 19 17 20 20 25 23 25 28 13 16 21 32 27 20 27 29 29 30 28
29 30 30 31 30 38 43 42 37 39 35 29 29 31 23 17 17 21 22 19 11 15 17 18 18 27 34 34 29 30 32 28 27 14 25 28 23 30 39 36 29 25 21 22 25
33 32 33 32 33 37 38 36 34 33 27 25 22 20 16 18 15 19 20 21 27 26 11 10 9 11 18 21 12 15 15 18 25 30 33 21 23 31 40 40 31 30 34 38 48
32 30 34 35 37 35 31 30 25 29 26 24 25 24 19 20 21 16 15 14 23 26 27 25 23 26 25 28 31 38 37 36 37 30 36 36 35 30 35 33 37 46 54 54 55
33 37 38 26 36 38 32 28 25 25 27 25 24 26 22 19 19 25 23 21 28 24 24 21 26 29 32 33 33 35 38 43 40 44 43 48 44 52 46 44 45 42 44 45 45
34 36 35 36 32 30 29 31 26 21 25 22 24 13 16 25 25 20 17 18 22 20 20 18 24 24 35 39 32 34 42 44 39 41 44 45 50 49 44 39 36 39 43 46 44
31 32 31 32 33 31 32 34 33 28 28 29 28 26 27 25 28 31 29 30 31 32 30 25 25 23 34 34 31 30 48 37 41 42 40 39 37 38 39 41 44 45 41 37 37

GFSSW_700_spd_024.txt.gz
Wind_Speed
12 11 11 11 10 10 10 10 11 11 11 12 11 11 11 12 12 11 12 12 12 13 13 13 13 13 13 13 12 11 12 9 8 11 7 13 17 17 18 17 13 20 15 12 18
14 14 13 13 13 13 13 13 13 13 14 15 15 15 14 14 15 15 16 15 15 14 12 11 12 12 14 15 14 14 17 14 10 11 17 16 19 21 24 24 18 18 15 19 24
16 16 16 16 16 16 15 16 16 16 16 16 17 16 16 16 16 17 15 12 10 11 9 9 12 14 17 18 17 20 20 16 18 19 24 26 25 26 27 29 21 23 19 20 24
19 18 18 19 18 18 17 17 18 17 17 18 19 18 18 18 13 10 15 16 16 18 19 19 19 18 19 19 18 22 22 21 23 22 26 28 26 28 28 30 26 23 24 26 26
21 21 20 20 20 19 18 18 18 18 18 18 19 18 18 19 18 16 19 20 20 19 19 18 16 15 18 17 15 23 23 25 23 31 29 31 27 27 27 24 25 21 22 24 26
23 22 22 21 21 21 21 21 22 22 21 21 22 22 22 23 21 16 16 17 17 16 17 18 19 20 24 26 26 28 31 31 31 31 33 31 23 19 23 20 22 22 22 24 28
25 25 25 25 25 24 25 24 24 24 23 23 22 23 23 22 22 22 22 22 23 24 24 24 24 23 24 29 26 25 29 33 33 19 18 20 28 24 22 23 25 28 31 29 29
27 27 27 26 25 24 24 24 24 23 23 23 22 23 24 23 23 23 23 24 24 25 26 27 26 27 26 28 30 30 28 25 15 19 23 23 28 22 24 31 32 28 27 28 26
27 26 26 26 25 25 25 25 26 25 25 24 23 23 25 23 22 21 20 20 19 20 20 21 22 22 21 23 21 18 20 19 21 14 23 23 24 33 35 37 33 25 23 24 23
27 26 26 26 26 25 25 25 25 26 25 25 24 23 21 22 21 22 21 21 20 17 19 20 22 22 19 18 17 19 22 26 28 24 29 33 35 30 32 29 27 24 22 14 24
27 25 25 26 25 25 26 26 26 27 27 24 23 23 21 23 24 24 27 28 27 27 24 23 22 23 23 20 19 26 27 27 27 28 27 28 33 32 28 15 13 13 18 21 27
24 24 25 26 26 27 27 26 27 29 30 26 27 29 31 30 32 32 32 34 33 30 23 24 26 21 14 20 24 26 28 30 27 21 22 29 32 28 14 18 11 19 21 29 30
31 28 28 29 28 26 26 25 24 27 32 33 32 31 32 31 36 39 38 37 35 31 29 30 26 17 14 19 27 27 25 23 23 23 22 19 21 21 18 24 23 20 28 32 24
32 33 32 30 29 25 25 26 24 24 23 19 11 15 17 23 25 27 28 28 26 23 19 16 18 16 11 11 11 16 12 14 18 18 10 16 13 16 17 14 21 19 27 27 20
35 34 30 28 25 23 22 23 18 15 5 7 10 11 7 6 6 3 3 5 12 12 7 9 8 9 10 11 9 12 18 20 21 23 23 16 15 6 15 15 16 22 22 17 16
31 31 27 25 25 21 20 18 14 6 9 6 7 7 7 7 6 4 5 5 6 8 10 9 14 11 12 18 16 19 19 19 17 16 6 4 9 5 2 9 13 17 19 15 16
35 30 26 23 23 21 20 16 8 9 2 7 11 9 9 7 9 8 9 8 5 4 5 10 18 23 20 21 14 8 9 7 4 5 6 2 14 17 16 19 19 19 21 22 24
36 33 30 23 24 21 18 15 13 8 14 6 7 6 7 10 12 12 15 17 11 15 13 10 10 15 15 12 10 10 11 7 5 2 10 29 14 20 18 24 28 31 29 31 28
34 26 24 25 24 16 18 18 10 9 13 17 21 26 18 17 19 17 20 20 16 18 13 10 8 14 13 12 13 5 10 13 19 23 10 15 21 31 25 23 27 28 33 34 30
32 33 31 25 19 20 22 26 15 17 22 18 16 11 13 12 20 14 13 11 16 21 21 16 16 19 20 18 15 14 14 9 6 3 5 7 14 19 25 23 25 29 31 28 28
33 25 25 25 28 30 33 31 30 30 30 27 27 30 23 15 19 20 14 18 14 15 17 18 15 14 15 11 8 10 15 19 19 20 3 9 13 25 26 23 22 20 25 25 28
23 25 26 30 29 29 35 36 32 33 34 32 33 31 30 27 27 27 23 13 11 17 18 14 8 20 30 35 30 26 29 28 17 14 24 27 27 35 32 29 26 27 25 29 32
30 30 28 23 28 33 35 34 33 36 35 33 34 34 27 24 21 26 25 22 26 23 12 14 11 8 15 20 13 11 8 15 18 20 21 15 14 23 26 37 33 33 38 42 45
29 23 26 31 35 37 35 35 36 33 30 29 28 25 23 23 23 13 18 19 25 28 26 19 25 21 20 23 19 28 29 32 28 20 30 36 40 52 45 31 36 45 56 57 57
31 33 36 28 33 38 36 33 26 29 26 25 29 31 27 22 22 27 25 21 22 25 22 19 28 24 29 30 30 31 36 42 35 38 33 49 46 53 53 49 48 48 48 47 47
36 38 39 39 38 36 31 36 38 28 30 29 29 19 20 30 25 17 24 28 26 19 17 16 21 22 31 30 30 36 45 41 42 45 43 43 46 44 44 43 43 42 40 42 48
39 40 40 39 37 34 37 34 33 28 27 31 26 21 19 22 25 33 32 28 28 29 29 27 25 20 28 24 19 22 47 32 33 33 34 36 35 34 34 36 41 44 44 45 44

GFSSW_700_spd_027.txt.gz
Wind_Speed
10 10 9 9 8 8 8 8 8 8 9 9 10 10 10 11 12 11 10 10 11 11 11 11 11 11 11 9 9 9 9 5 1 4 2 6 14 20 19 18 15 19 15 11 12
12 12 11 11 11 10 10 11 11 11 11 12 12 12 12 12 12 13 13 13 11 11 11 10 11 11 11 11 9 10 10 6 6 9 14 15 17 22 24 24 17 17 15 18 20
15 14 14 14 13 13 13 13 13 13 14 14 14 14 14 14 14 14 11 6 5 6 7 8 11 13 15 18 14 16 14 12 9 14 19 20 20 22 24 26 20 18 17 15 20
17 17 17 16 16 15 15 15 15 15 15 15 15 15 15 14 10 8 13 15 15 15 16 16 18 18 17 16 14 17 16 14 15 15 18 23 24 21 22 22 20 17 16 18 17
19 19 19 19 18 18 17 16 15 16 16 17 18 18 18 16 14 14 15 16 16 16 16 16 15 14 15 14 15 19 20 21 22 21 22 26 27 24 15 16 15 16 13 13 14
22 21 21 20 20 19 19 19 19 19 20 20 20 20 20 20 16 14 15 16 17 17 17 17 19 20 21 22 21 24 25 24 23 26 21 16 15 18 14 19 19 17 18 22 24
24 23 22 22 21 22 22 22 21 21 20 20 21 21 21 19 19 19 18 19 19 20 21 22 22 21 22 23 22 20 24 27 20 10 15 17 19 18 19 24 27 23 23 26 31
25 24 24 24 24 23 22 21 21 21 20 20 20 21 22 21 20 20 20 20 21 22 22 23 22 22 23 24 26 25 24 19 14 12 18 19 23 23 28 32 30 24 18 24 26
27 25 24 25 23 23 22 22 22 23 22 22 22 22 23 22 20 18 17 16 16 16 18 19 18 18 19 20 20 17 15 17 13 11 18 22 30 30 33 31 26 19 23 27 28
27 26 25 25 24 24 24 22 22 23 23 24 24 23 21 22 20 20 21 21 21 19 18 18 19 17 18 18 18 17 15 16 21 21 28 29 36 30 25 17 15 17 17 22 22
27 26 26 25 25 24 23 22 22 25 24 23 23 25 24 23 24 22 23 24 25 26 25 23 23 24 20 19 19 19 20 25 26 25 29 33 30 25 22 16 13 13 22 23 24
27 27 27 26 24 23 23 23 25 27 28 27 26 28 29 27 29 29 31 34 33 30 25 25 26 22 15 14 17 22 27 29 28 20 19 21 25 26 22 26 18 21 25 24 26
27 25 27 27 29 27 27 29 27 27 30 33 33 34 32 30 35 36 36 38 35 31 30 30 24 23 19 16 20 23 24 25 18 15 18 24 25 25 15 18 17 20 20 23 25
30 30 32 33 32 30 29 27 25 23 22 22 23 23 22 25 28 30 29 29 29 24 20 18 15 14 15 19 19 19 12 10 11 16 13 13 9 12 6 17 20 22 24 23 23
35 36 36 34 34 29 27 21 18 14 5 5 11 11 10 7 6 3 7 12 16 15 13 8 4 5 6 6 9 12 11 16 21 20 21 20 13 4 14 14 15 15 19 22 22
37 35 34 34 34 28 24 18 12 7 9 7 9 11 12 10 8 5 6 6 6 8 9 10 9 11 9 9 13 12 14 16 15 18 4 4 8 4 2 7 8 14 19 20 20
34 32 31 32 32 28 24 18 12 10 6 9 11 10 9 6 6 6 6 6 6 6 7 8 12 12 16 18 16 14 10 4 2 2 5 10 13 14 13 14 13 18 17 19 20
29 33 29 37 31 31 26 24 16 9 19 12 10 10 8 7 7 7 10 12 13 11 11 11 9 12 11 14 11 12 9 4 5 3 5 20 10 8 10 12 14 18 21 23 23
32 33 31 39 36 34 32 33 19 23 20 19 14 13 14 13 15 19 24 26 20 20 16 10 10 13 16 15 15 8 11 11 15 23 8 8 10 16 21 20 16 18 21 24 25
32 32 35 34 26 35 32 30 21 19 19 22 21 14 10 9 13 13 19 13 18 25 23 18 15 19 22 21 16 14 11 7 7 1 4 8 10 11 12 20 18 18 16 19 20
27 16 22 26 29 32 37 37 29 25 26 26 26 23 21 21 19 16 13 18 17 18 20 21 21 20 18 14 12 11 14 13 13 16 4 2 9 17 18 22 19 17 20 22 26
28 26 28 33 34 37 39 38 33 27 29 29 30 30 32 30 27 29 25 23 18 21 23 24 16 22 28 25 17 16 24 24 15 8 14 18 28 34 32 17 13 26 28 28 28
28 35 34 33 36 39 39 37 38 34 34 34 33 34 33 31 27 31 35 32 26 26 17 22 16 13 15 15 14 15 19 16 13 18 22 11 13 17 18 20 28 41 40 42 47
35 32 33 34 35 37 37 34 31 35 34 32 34 31 29 30 29 17 22 26 30 28 24 23 26 23 22 9 7 11 17 21 23 15 20 32 37 42 42 47 50 49 48 50 53
42 37 37 26 43 39 34 34 33 38 33 30 33 34 29 28 28 31 21 23 25 28 25 24 28 27 34 32 31 35 38 38 35 36 29 47 46 47 45 45 41 41 41 42 44
35 38 36 32 29 29 29 32 37 32 30 33 34 30 30 30 30 25 33 32 26 26 32 33 28 25 32 29 29 31 39 38 41 42 45 45 44 33 30 32 36 37 38 39 37
26 24 26 30 31 34 40 38 35 33 35 34 31 27 27 29 29 30 28 27 30 30 32 27 23 20 27 24 22 23 44 37 32 32 31 30 27 22 26 29 34 35 39 41 41

GFSSW_700_spd_030.txt.gz
Wind_Speed
8 8 7 7 6 6 6 6 6 6 7 7 8 8 8 9 9 9 8 9 9 9 10 9 9 8 8 8 7 7 7 4 6 6 7 8 10 14 17 19 19 17 13 13 16
11 11 10 9 9 9 9 9 9 9 10 10 10 10 10 10 10 11 11 11 10 10 10 9 9 8 8 8 9 9 8 6 7 10 11 12 16 19 20 21 14 17 15 16 16
14 13 12 12 11 11 12 12 12 12 12 12 12 12 12 12 12 13 9 5 4 5 6 8 9 11 14 15 13 13 10 9 8 13 15 14 15 16 21 18 18 15 14 16 19
16 15 15 14 14 14 14 14 14 14 13 13 13 12 12 12 8 6 10 13 12 12 13 14 16 16 15 14 15 14 10 10 10 11 14 17 18 17 18 15 14 12 11 13 11
18 18 17 17 16 16 16 16 15 15 15 15 16 16 15 15 13 15 15 16 15 13 12 12 12 13 12 11 14 18 18 18 18 14 16 19 17 14 5 11 8 9 14 14 14
21 21 20 19 19 19 18 17 17 18 18 18 18 18 18 16 15 14 14 15 15 15 16 16 17 17 18 18 18 20 21 20 17 17 14 10 11 14 9 12 10 16 19 21 23
23 23 22 22 21 21 20 20 19 20 20 19 18 19 18 17 16 17 16 17 18 19 19 18 19 19 20 20 20 18 20 22 15 6 10 14 17 13 15 19 22 24 23 22 24
25 25 24 24 24 23 22 21 21 20 20 20 19 20 20 20 19 19 19 18 19 20 20 20 20 21 22 23 22 22 21 16 11 12 14 14 19 16 22 24 23 21 22 24 24
28 27 25 25 25 24 22 22 22 22 21 21 21 21 22 22 20 18 16 16 16 17 17 17 17 18 20 19 17 16 13 16 18 17 16 18 26 27 25 26 19 20 21 22 23
29 29 28 26 25 24 24 23 23 23 22 22 23 21 20 21 19 19 18 19 20 20 19 18 18 19 20 16 15 14 16 19 21 20 22 25 30 30 23 12 17 15 20 23 24
30 28 28 27 27 25 24 23 23 24 23 22 21 23 23 24 24 23 22 22 21 20 19 20 21 23 20 19 18 21 22 23 23 19 28 30 29 18 13 17 17 22 23 25 26
31 29 29 29 28 26 24 23 23 25 26 26 26 28 27 26 27 28 28 30 30 29 27 26 27 23 20 22 23 21 22 23 24 21 22 19 20 20 22 19 23 25 24 26 24
32 30 31 30 28 26 23 23 25 26 30 35 32 34 32 33 35 35 34 36 35 34 32 31 26 23 20 20 21 20 23 22 23 16 15 23 26 16 18 18 19 18 18 19 17
32 31 31 31 28 26 25 26 26 27 27 33 39 34 32 32 36 35 36 35 33 29 22 19 18 21 22 23 21 25 17 14 12 11 10 15 8 12 19 13 16 18 20 21 23
34 32 32 32 30 28 28 26 24 20 6 9 17 18 14 15 14 11 16 21 23 19 17 8 5 7 11 7 8 8 9 11 15 19 21 21 13 5 7 17 18 17 18 20 19
38 33 36 38 35 31 30 25 20 11 11 10 13 17 17 14 11 9 9 9 11 14 14 12 10 12 10 11 11 11 13 16 20 22 6 18 16 7 11 3 8 10 14 18 20
41 40 43 41 38 29 29 26 17 13 9 15 18 19 14 13 14 13 11 11 10 11 13 13 17 14 14 16 17 17 11 3 3 2 6 15 4 14 13 11 9 13 18 22 20
43 43 46 48 41 32 32 33 22 16 24 13 21 19 17 15 15 14 14 15 15 12 9 13 10 18 20 23 17 16 20 9 6 3 4 8 8 10 12 8 8 10 14 16 19
45 43 39 36 37 38 41 40 26 30 29 23 19 19 19 19 13 16 17 19 18 19 17 12 12 16 19 16 17 13 20 21 16 14 5 9 14 15 13 14 14 6 10 14 18
37 46 46 41 40 40 46 48 40 27 29 30 28 18 19 21 18 17 20 13 20 27 25 19 13 14 16 17 18 21 14 10 10 2 5 7 15 16 9 11 5 8 9 13 16
45 39 40 44 46 44 49 44 33 27 31 30 31 24 21 21 25 30 14 19 22 21 21 26 23 16 19 24 26 24 27 18 16 15 5 2 10 9 12 8 14 16 19 21 21
35 44 39 39 36 35 44 51 44 33 34 30 26 26 26 29 25 24 26 25 16 21 25 25 16 20 26 22 22 27 27 25 19 9 15 16 28 22 24 23 16 18 19 24 31
35 34 20 18 27 36 37 40 43 48 39 31 27 27 30 34 25 35 35 33 30 30 26 28 20 15 13 20 26 27 30 30 28 27 30 11 13 19 19 17 15 24 33 41 46
37 34 33 34 36 39 40 44 42 42 41 39 31 31 34 36 37 28 28 27 33 36 33 30 33 28 23 13 9 24 34 23 19 14 16 32 27 27 23 27 40 42 43 44 44
38 37 41 30 45 44 46 45 44 41 44 41 38 37 35 33 36 37 36 30 29 29 29 30 32 32 34 34 28 30 31 27 28 30 25 44 38 44 41 42 44 44 39 39 36
48 44 46 49 44 38 46 45 46 41 44 36 32 31 31 36 37 26 33 34 29 30 31 31 26 26 29 28 31 36 43 41 42 43 42 43 46 41 39 36 36 38 37 35 34
51 50 49 40 43 41 47 51 47 40 30 29 28 27 28 30 30 30 29 29 35 32 33 31 31 28 31 27 23 27 42 41 42 41 40 37 35 25 29 31 30 30 33 37 38

GFSSW_700_spd_033.txt.gz
Wind_Speed
9 8 8 7 7 7 6 6 6 6 6 6 7 7 7 7 8 8 8 9 9 9 9 10 9 9 9 7 6 7 6 4 6 8 8 8 9 11 14 15 17 19 17 16 15
12 11 11 10 9 9 9 8 8 9 9 9 9 10 10 10 10 10 11 11 10 10 10 9 8 8 7 7 8 8 8 6 6 10 9 10 12 16 18 15 15 17 18 20 19
15 14 13 13 12 11 11 11 11 11 12 12 12 12 11 11 11 11 9 6 5 5 6 7 8 10 11 13 13 12 10 9 9 11 11 11 12 15 17 17 19 15 12 13 16
18 16 15 14 14 14 14 14 14 14 14 14 13 13 12 11 7 6 7 10 11 12 13 13 13 14 13 13 13 12 8 8 8 10 12 14 16 15 17 14 9 11 11 11 13
20 19 17 17 16 17 17 17 16 16 16 15 15 15 15 14 12 14 15 15 15 14 14 13 13 12 11 10 12 16 14 14 13 12 13 15 15 15 5 6 5 10 14 18 17
22 21 20 19 19 19 19 19 19 18 17 17 17 17 17 16 15 14 14 14 14 14 14 15 16 15 16 16 17 19 19 18 15 12 17 12 8 10 10 8 10 17 20 20 23
25 23 23 22 22 22 21 21 20 20 19 19 19 19 19 16 16 17 16 16 17 18 18 18 18 17 18 18 19 16 17 19 19 7 9 12 14 11 11 14 20 23 24 22 21
27 26 25 25 25 24 23 22 21 21 21 20 21 21 21 20 19 18 18 19 19 19 20 20 19 19 21 21 21 20 19 16 7 13 13 15 18 13 14 22 24 27 24 20 19
29 28 27 27 27 26 24 23 23 23 22 22 22 23 23 23 22 20 19 19 19 20 21 20 19 20 21 20 18 15 13 15 17 16 14 15 20 19 20 23 26 21 19 19 19
31 30 30 29 28 27 26 25 24 25 24 24 25 22 21 21 19 18 17 17 18 19 19 18 19 20 22 19 19 13 16 19 21 19 18 21 25 24 21 19 15 17 18 21 24
33 31 31 31 30 27 27 26 26 27 27 25 22 19 17 21 23 22 21 22 22 22 21 20 21 22 18 17 18 21 22 23 24 21 25 25 27 14 7 14 20 22 23 25 26
33 32 31 31 31 29 28 27 26 27 28 27 26 27 27 27 27 26 26 27 27 26 25 27 30 23 22 21 22 24 25 27 24 19 21 24 18 14 20 18 17 22 26 25 18
35 33 32 33 33 31 29 26 25 24 29 34 32 34 33 32 33 33 33 34 34 34 33 33 28 24 22 22 25 26 27 24 22 19 19 18 22 18 18 17 25 19 18 17 14
35 35 34 35 35 31 28 24 21 21 23 32 37 38 36 36 41 38 39 40 39 35 30 25 25 27 27 29 25 25 22 22 20 15 9 8 7 12 21 25 19 17 15 14 15
37 36 35 36 35 31 24 22 20 17 6 11 19 23 20 25 29 26 33 38 34 31 29 20 12 13 23 24 21 20 12 9 12 14 18 20 15 10 16 19 17 17 16 14 15
39 37 38 39 36 30 27 24 21 12 13 10 13 16 22 23 23 17 15 18 18 21 23 20 14 12 9 11 14 11 11 11 15 17 6 19 21 5 15 16 16 15 13 13 17
42 39 41 38 36 31 33 28 19 17 14 18 23 23 23 22 21 19 17 18 16 17 20 16 20 17 16 16 16 18 12 3 4 2 6 6 11 21 12 16 11 9 11 15 19
40 40 44 44 37 37 36 35 19 31 40 23 16 23 25 24 24 23 21 21 22 17 9 14 8 21 22 23 19 22 22 9 7 3 4 9 10 9 21 19 19 17 17 17 15
39 42 47 47 46 47 38 42 35 38 29 39 25 26 29 26 18 24 25 25 22 19 13 14 13 14 20 21 25 17 24 24 17 11 4 11 17 16 16 18 21 17 15 14 14
48 51 56 59 50 47 54 62 50 40 31 32 37 28 35 33 28 21 23 19 26 22 22 16 10 16 18 22 23 27 15 10 14 2 5 7 13 17 9 18 22 18 14 15 15
41 40 60 56 49 52 58 53 51 44 36 36 39 34 29 34 34 32 19 21 19 20 22 26 21 12 18 21 27 25 26 18 17 22 6 2 10 12 11 16 18 15 15 17 18
39 37 46 49 55 58 55 59 54 41 41 38 37 41 36 31 32 33 32 28 17 22 21 20 14 21 28 26 27 31 31 31 25 13 17 16 32 16 12 14 14 19 23 22 20
33 34 38 43 47 53 50 48 49 42 44 48 48 42 37 39 27 30 36 29 31 28 21 24 17 15 13 21 26 32 36 37 40 37 29 14 16 18 17 17 19 22 25 24 30
30 36 40 39 49 50 54 49 40 36 40 47 47 45 46 38 30 17 33 31 29 29 28 27 31 28 28 17 11 26 39 36 36 26 27 40 37 33 31 27 26 26 31 38 41
37 40 40 37 45 36 38 28 26 35 37 41 43 48 42 36 35 38 35 33 31 28 26 31 36 35 40 40 33 31 30 31 35 43 36 38 34 37 32 31 38 43 41 41 34
49 46 46 46 44 31 36 33 33 30 38 43 46 45 49 43 39 37 39 37 31 26 27 32 36 33 36 36 34 38 42 35 31 31 35 36 44 42 46 45 40 41 36 34 39
52 48 45 44 52 40 39 41 36 36 45 47 47 37 43 46 39 30 28 28 24 25 28 30 34 28 27 30 28 29 46 44 44 48 46 47 50 43 39 37 35 31 37 40 40

GFSSW_700_spd_036.txt.gz
Wind_Speed
10 9 8 8 7 7 7 7 7 7 7 7 7 7 6 7 7 8 8 8 8 9 9 9 9 8 7 6 6 6 4 3 6 7 7 6 6 8 9 12 14 16 16 16 15
13 12 11 11 10 10 10 9 9 10 9 9 9 9 9 9 9 10 10 10 10 10 10 9 9 8 7 5 5 7 7 4 6 7 8 9 9 12 13 12 14 15 16 16 15
16 15 14 13 13 13 12 12 11 11 11 11 11 11 10 10 10 11 10 8 6 4 5 6 8 9 10 12 11 10 8 7 8 8 9 10 11 14 13 13 19 11 8 9 12
19 18 17 16 16 15 14 14 14 14 13 13 13 13 12 11 7 6 7 7 9 11 11 11 12 12 12 12 10 10 6 6 6 8 10 12 13 15 13 15 15 11 8 9 11
23 21 20 19 19 18 17 16 16 16 15 15 15 15 15 14 12 14 14 14 14 13 13 13 13 11 10 10 11 11 10 11 12 12 14 14 13 16 5 8 10 14 15 16 18
26 24 23 22 21 21 20 18 18 18 18 18 18 18 17 16 15 15 15 14 14 14 14 14 14 14 15 14 15 16 16 15 13 11 14 16 11 7 9 10 11 13 16 20 22
28 27 25 24 24 23 22 21 20 20 20 21 20 20 20 17 17 16 16 16 16 16 17 17 18 17 17 16 16 15 15 15 17 12 8 6 10 8 13 14 16 19 23 23 22
30 29 27 27 26 25 24 24 23 22 22 21 22 22 23 20 19 19 18 18 19 19 19 19 20 20 19 20 20 19 19 15 6 7 9 11 14 10 16 17 22 25 26 24 18
33 31 30 29 29 27 26 26 25 24 23 23 23 24 25 23 22 21 20 20 21 22 22 22 21 21 21 20 18 16 14 16 13 13 13 13 16 13 17 23 26 27 22 18 16
34 33 32 31 30 29 28 27 26 26 25 25 26 24 23 20 18 16 15 15 17 18 20 21 21 21 22 20 18 15 14 14 18 18 17 18 22 20 24 28 26 18 16 19 20
36 35 34 33 33 30 29 28 27 29 28 27 25 22 21 22 19 16 15 18 20 22 22 23 25 26 20 13 13 16 20 22 22 21 24 25 26 21 24 22 16 18 20 21 21
38 37 36 35 35 32 30 29 27 29 31 30 30 30 30 29 29 27 25 25 26 27 25 26 30 20 19 21 22 22 24 27 25 23 25 23 26 21 17 17 19 21 21 26 23
39 38 37 37 36 33 30 27 26 27 32 36 34 34 31 31 32 32 30 32 33 32 31 32 25 18 19 22 25 27 28 28 25 22 23 24 25 17 19 20 17 18 25 22 16
39 38 38 38 39 33 30 25 25 24 24 36 36 38 38 38 42 38 38 39 38 36 33 29 31 32 32 34 31 29 27 22 20 18 9 7 6 11 16 19 23 24 24 17 15
40 39 40 38 39 34 27 25 22 19 6 14 23 26 22 29 37 34 39 44 43 40 36 31 25 20 24 29 27 24 22 18 15 14 17 17 13 13 17 21 23 25 20 17 16
41 39 40 41 38 33 29 25 22 14 13 12 15 18 22 23 28 30 25 26 31 31 34 34 27 19 20 15 17 19 14 11 10 12 6 22 21 6 13 11 19 21 19 20 17
44 41 44 40 36 33 31 29 23 22 16 22 23 20 18 23 27 29 27 28 24 21 27 26 27 24 18 15 15 22 15 3 2 2 6 6 12 25 12 12 16 19 18 19 19
43 44 44 43 37 36 38 36 22 33 45 25 12 23 31 30 29 28 27 27 27 25 9 20 10 29 24 25 17 25 22 8 7 4 4 5 10 7 12 17 18 19 20 21 19
48 45 54 58 50 42 43 48 49 48 28 43 28 26 30 30 27 28 33 33 31 31 17 17 13 16 18 26 23 20 28 25 12 10 4 10 16 19 16 16 22 26 26 21 19
38 51 51 52 45 43 48 55 58 49 32 29 40 27 32 35 34 28 28 25 36 31 28 14 7 18 27 23 26 25 18 11 12 1 5 6 12 17 9 13 23 28 25 23 22
39 43 47 53 55 55 56 62 59 61 41 41 41 32 33 32 36 41 32 28 23 29 31 26 19 13 22 25 28 27 27 18 15 13 5 2 7 7 8 10 14 20 23 22 21
36 41 46 51 57 56 66 63 58 52 55 44 46 44 44 40 39 44 43 33 24 28 35 35 17 19 26 23 26 27 31 33 25 10 13 7 26 20 26 17 15 18 21 21 22
38 34 30 34 51 59 58 56 62 57 52 47 45 42 45 43 40 40 44 36 27 29 30 32 21 14 7 17 24 30 36 36 36 31 32 11 18 18 16 11 14 22 26 29 29
45 41 41 39 41 45 47 50 53 53 50 51 52 49 48 49 45 28 43 39 34 34 34 27 30 24 21 13 9 29 40 39 39 33 27 40 42 40 28 19 22 26 30 30 30
43 48 51 31 41 38 41 46 52 49 46 44 48 54 51 47 49 45 41 46 39 36 37 33 30 28 29 30 31 32 35 35 37 37 38 43 40 38 36 36 34 28 28 31 39
49 44 31 41 34 35 41 51 50 52 43 45 49 40 45 49 51 51 49 39 36 34 33 31 26 28 31 33 35 38 45 41 38 36 34 35 44 42 40 38 38 34 40 46 42
52 47 48 39 38 39 48 52 41 34 35 33 30 29 34 40 42 43 34 42 33 34 35 32 30 26 23 31 31 28 49 51 48 45 44 44 48 39 39 42 41 39 37 36 32

GFSSW_700_spd_042.txt.gz
Wind_Speed
13 13 12 12 11 11 11 10 9 8 7 7 7 6 6 6 6 6 7 7 7 7 7 7 6 6 6 6 5 6 6 8 9 11 12 12 11 10 9 9 11 10 9 8 9
15 14 13 12 11 11 10 10 10 9 9 9 8 8 7 7 7 8 8 9 9 8 9 8 7 7 6 6 5 5 5 6 8 10 10 12 12 11 11 11 13 11 11 11 10
17 16 15 14 12 12 12 12 11 11 10 10 9 8 8 8 9 10 10 10 9 9 8 7 6 6 7 8 9 9 9 9 9 10 10 11 12 13 13 13 13 14 13 11 8
20 19 18 17 15 15 14 14 13 13 12 12 11 10 10 10 6 8 7 7 7 7 7 9 10 10 9 9 9 9 9 9 9 10 10 11 12 13 15 15 15 12 12 11 10
24 22 21 20 19 18 17 17 16 15 15 14 13 13 12 12 12 13 12 12 12 12 13 12 12 11 11 8 8 8 8 8 9 10 12 13 14 17 18 16 16 13 11 12 12
27 26 25 24 22 21 20 20 19 18 18 17 16 16 16 15 15 16 16 15 15 15 14 13 13 11 12 11 11 10 10 12 12 14 15 16 18 19 18 17 14 13 14 15 15
30 29 28 27 26 25 23 23 22 21 21 20 20 20 20 18 18 17 16 15 15 15 15 14 14 13 13 12 13 13 13 13 13 14 16 16 20 20 17 15 15 16 18 18 20
33 32 31 30 29 28 26 25 25 24 23 23 23 23 24 22 21 20 19 19 18 18 18 17 16 16 16 16 16 15 16 16 13 11 12 14 11 13 15 17 18 19 20 22 22
35 34 34 33 32 31 29 28 27 27 26 26 26 26 27 26 24 22 21 21 21 20 20 20 19 19 19 18 18 17 12 14 13 13 13 15 12 13 16 18 19 22 22 24 25
38 37 37 37 35 33 32 31 30 30 30 29 29 26 26 19 13 12 18 23 23 23 23 23 23 23 23 21 15 11 16 18 18 14 16 19 21 21 19 21 22 24 27 25 23
39 38 38 38 37 36 34 34 33 33 33 31 29 25 25 22 19 19 19 21 20 21 23 23 25 26 21 18 20 19 19 20 19 16 20 23 23 25 25 27 28 28 26 23 17
39 39 38 40 40 38 37 36 34 35 35 35 35 35 34 31 27 24 22 22 24 25 23 25 29 21 20 22 22 22 23 23 23 23 25 26 29 26 31 32 30 28 25 21 19
40 41 41 42 43 42 38 35 33 32 36 42 39 39 36 34 33 33 30 29 28 28 28 30 27 20 21 25 26 27 27 25 25 26 27 28 34 35 37 36 31 27 22 21 20
47 44 46 45 48 43 41 31 31 29 29 41 43 45 44 38 43 36 35 35 35 34 31 28 33 31 30 28 25 28 28 26 27 25 19 13 13 17 17 22 24 22 22 22 20
49 50 54 49 50 46 33 32 30 24 8 17 30 35 36 40 42 40 41 40 40 38 34 28 27 27 30 32 28 29 27 26 28 25 21 19 14 14 26 23 22 22 23 23 22
47 53 53 56 53 43 33 32 28 16 16 14 18 24 28 33 39 41 38 42 42 40 38 37 34 30 30 26 23 27 23 20 19 17 13 26 23 11 19 19 22 23 24 24 23
43 51 52 58 55 38 34 34 27 29 20 25 24 22 24 29 33 36 38 40 39 28 35 40 44 42 36 27 26 27 18 6 6 7 8 13 19 25 14 16 16 17 17 18 21
44 46 49 56 51 39 40 42 24 57 52 25 18 30 29 29 33 34 36 37 39 37 19 18 14 29 32 36 31 32 30 13 7 6 3 14 12 15 23 25 20 19 18 20 24
46 41 53 54 52 47 49 51 52 50 36 43 24 26 35 33 29 33 36 40 38 36 33 17 18 24 23 22 30 26 31 31 5 3 3 9 12 13 19 26 25 25 23 22 24
39 43 48 53 50 51 54 61 68 56 35 32 46 30 33 36 35 32 32 32 41 35 34 23 17 17 22 24 30 27 26 18 18 5 6 6 9 17 21 26 24 24 20 20 22
36 33 54 46 47 58 64 71 65 49 41 39 42 36 38 39 40 42 39 37 24 23 31 35 22 16 22 32 36 36 30 23 17 19 4 3 8 10 18 18 21 20 18 17 21
50 41 39 52 55 65 69 73 56 55 45 40 39 39 41 36 36 42 47 48 31 29 30 34 20 27 33 28 38 40 32 42 20 11 20 16 16 13 15 21 24 23 17 17 21
42 45 22 42 50 53 62 70 66 54 56 52 48 44 43 38 36 39 43 40 40 37 33 34 22 15 16 28 33 44 46 43 42 25 33 13 12 20 22 24 25 21 18 17 19
41 35 29 43 43 54 59 53 65 61 44 56 57 48 41 43 42 35 36 34 42 45 40 38 34 34 32 20 25 46 50 53 50 37 37 48 32 24 27 29 27 21 21 20 22
41 37 41 35 53 46 52 54 58 52 60 37 48 57 58 49 49 58 49 37 37 35 41 44 45 46 51 42 35 31 42 53 59 64 35 51 43 42 38 33 31 29 29 28 23
43 38 39 36 42 42 38 39 46 52 57 50 63 54 49 52 58 46 52 50 49 39 45 49 45 44 50 54 53 46 43 46 48 59 61 44 43 33 28 31 34 33 33 28 26
41 44 30 39 44 43 40 44 40 32 35 50 55 49 45 46 52 52 49 49 51 48 51 52 54 37 42 52 43 28 74 53 51 51 55 50 59 42 35 36 31 34 31 28 30

GFSSW_700_spd_045.txt.gz
Wind_Speed
11 11 11 11 10 10 10 10 10 10 10 9 8 8 8 8 8 8 8 8 8 8 8 8 8 7 8 7 7 8 7 8 9 11 11 13 14 14 12 12 12 10 11 11 12
13 12 12 11 11 11 11 11 11 11 11 9 9 9 9 9 9 10 9 10 10 10 10 10 9 9 9 8 7 8 7 8 11 11 10 14 14 14 13 13 15 14 11 12 13
17 16 15 14 13 13 13 13 13 12 11 11 10 10 10 10 10 11 11 11 11 11 11 10 9 8 8 9 8 10 8 14 13 15 14 16 16 15 14 13 16 15 12 13 12
20 19 18 17 16 15 15 15 14 13 13 13 12 12 11 10 7 8 10 10 10 9 8 7 7 9 11 12 11 11 13 13 13 14 14 14 18 17 17 19 16 16 15 15 12
24 23 22 21 19 19 18 17 16 16 16 15 15 14 13 13 13 13 10 10 10 10 11 11 12 12 12 13 12 12 13 12 12 12 13 15 15 19 19 18 19 17 18 16 14
28 26 25 24 23 22 21 20 19 19 19 18 17 17 17 16 15 16 16 17 16 16 16 15 15 14 15 13 13 12 11 14 14 15 16 18 19 22 23 20 19 20 18 16 16
31 30 29 28 26 25 24 23 22 22 22 21 20 20 21 20 18 17 17 17 18 18 18 17 15 15 14 14 15 16 15 17 18 18 20 20 24 23 26 21 22 17 17 17 18
33 33 32 31 29 28 26 26 25 25 25 24 24 24 25 23 21 21 21 21 20 19 18 18 17 17 17 16 17 16 16 12 13 16 21 21 19 21 18 18 18 19 20 21 20
36 34 34 33 32 31 29 28 28 27 27 27 27 26 29 27 26 24 24 23 23 22 21 21 21 20 19 17 12 16 15 12 11 12 15 16 11 20 17 18 20 22 23 23 24
37 36 35 35 35 33 32 31 30 31 31 30 30 27 29 21 17 14 23 26 25 24 24 24 23 23 23 17 17 14 16 13 15 14 16 21 23 25 21 22 24 25 25 26 27
36 37 36 36 37 36 35 34 33 34 35 32 32 30 26 24 23 22 24 19 17 21 27 28 27 30 26 23 20 19 14 16 14 20 20 21 22 20 27 28 30 30 30 30 30
33 37 36 37 36 38 37 36 35 35 37 36 37 39 37 34 32 25 24 24 23 23 24 27 32 26 19 22 21 24 22 22 19 24 23 24 27 29 27 36 33 35 35 34 30
36 37 36 37 37 39 38 35 32 33 37 44 43 44 40 36 35 35 32 29 27 26 29 31 22 19 25 26 27 27 24 22 19 22 23 28 36 39 37 43 43 40 40 35 31
39 44 39 38 42 39 40 29 29 28 29 39 43 49 49 41 43 41 35 36 37 34 30 28 29 30 28 28 25 23 21 24 23 19 18 14 16 18 14 29 27 30 38 37 32
46 45 47 40 43 41 36 30 30 24 8 18 33 41 41 42 38 41 43 42 40 38 33 26 28 30 34 35 29 23 22 24 21 22 23 26 17 27 26 38 35 33 28 31 30
46 46 44 47 51 48 41 32 30 15 20 16 21 30 32 35 44 41 36 42 42 39 42 36 31 29 26 27 24 27 24 24 23 16 19 28 27 28 30 27 28 27 24 25 26
45 43 48 52 52 46 45 35 27 30 29 30 23 24 27 35 40 41 42 44 41 30 33 32 44 42 36 33 29 26 15 7 6 7 8 11 22 38 10 19 20 22 25 25 27
38 43 45 54 51 46 45 40 21 66 50 20 13 28 31 30 36 38 39 40 44 40 21 24 15 31 36 42 25 25 28 12 6 6 5 10 14 17 22 28 24 23 26 27 27
41 38 45 48 52 45 46 49 54 73 45 50 18 20 29 30 26 36 39 42 40 44 27 19 17 18 20 17 27 14 27 30 18 20 7 13 16 23 21 25 31 28 26 25 24
36 41 50 50 54 53 54 56 68 49 37 30 52 38 29 33 36 28 33 37 42 41 40 22 12 18 19 23 25 27 14 15 19 6 8 11 22 22 18 28 28 34 31 27 24
38 46 51 39 40 64 65 67 70 40 34 43 43 37 41 30 43 41 30 31 25 35 34 34 26 20 22 28 31 34 26 17 17 22 4 5 10 15 20 19 25 30 32 29 27
38 37 46 49 49 68 68 74 59 55 36 43 34 39 33 32 33 41 49 41 27 32 33 38 24 29 31 27 27 28 25 35 17 10 23 18 26 16 9 16 22 27 30 29 27
31 43 40 34 46 57 67 73 67 50 57 49 46 42 36 33 29 42 40 43 42 37 37 38 27 19 19 23 27 37 44 36 43 23 35 14 21 20 23 20 25 31 35 34 29
29 39 45 37 46 48 50 65 67 70 49 59 53 42 41 41 40 30 37 36 37 41 41 39 36 37 34 19 16 33 45 51 45 37 44 52 42 29 24 23 26 31 34 36 29
35 46 45 26 40 49 38 56 60 60 66 54 53 57 55 43 45 48 38 34 34 34 41 45 41 45 53 47 34 27 28 35 56 69 36 67 47 39 35 30 27 31 38 36 30
37 33 46 39 43 38 52 53 51 56 56 61 63 58 60 55 62 43 48 44 39 39 40 46 41 41 58 55 51 52 48 46 49 48 59 64 57 28 31 36 37 36 40 39 34
41 43 28 50 49 44 46 27 46 46 47 57 59 63 50 62 58 59 50 45 50 51 47 45 49 40 43 36 40 26 78 56 58 57 52 56 62 49 42 37 35 38 38 36 33

GFSSW_700_spd_048.txt.gz
Wind_Speed
12 11 10 10 9 8 8 8 8 8 8 8 7 7 7 8 7 7 7 7 7 7 7 7 7 7 7 6 7 7 7 4 6 8 10 16 13 12 11 13 11 9 9 10 9
11 11 10 10 9 9 9 8 9 9 9 9 9 9 9 8 8 8 8 9 8 9 9 8 9 9 9 7 7 8 8 5 11 11 10 17 12 13 14 15 13 14 13 12 12
14 13 12 11 11 11 10 10 10 10 10 10 10 10 10 9 9 9 9 10 9 10 10 9 9 9 8 6 6 8 9 11 15 16 16 18 13 19 11 11 16 14 8 12 14
18 17 16 15 14 13 13 12 12 12 12 12 12 12 11 10 6 6 8 9 10 9 9 8 7 6 6 8 10 12 13 15 18 14 15 17 16 16 17 19 18 15 14 15 14
22 21 20 19 17 16 16 15 15 15 14 14 14 13 13 12 12 11 8 6 6 6 7 7 8 10 9 12 11 13 17 13 14 13 15 17 16 18 20 19 19 19 19 17 17
27 25 23 22 21 20 19 18 18 17 17 17 17 17 16 15 14 13 13 13 13 14 14 15 15 12 14 14 13 15 12 12 13 13 15 16 17 22 20 20 20 22 22 20 19
31 29 27 25 24 23 22 22 21 20 19 19 20 20 20 17 16 15 15 15 15 16 17 16 16 15 16 14 14 16 17 16 16 16 19 19 24 26 24 24 22 20 21 22 19
34 33 31 29 27 26 26 25 24 23 23 22 22 24 24 22 20 19 19 18 18 18 18 16 17 17 16 16 16 16 17 16 15 15 16 19 27 22 23 19 21 22 19 19 19
35 35 34 33 32 30 28 28 27 27 26 25 25 26 28 26 24 23 22 22 21 21 21 20 20 20 18 17 16 15 17 12 13 14 18 16 14 17 20 21 20 19 19 21 23
34 36 35 34 35 33 31 30 30 30 29 28 28 26 27 20 12 11 16 22 24 23 23 23 23 23 23 21 18 11 18 17 16 17 19 20 21 25 25 22 21 22 24 25 27
33 33 34 35 35 35 34 33 32 33 34 30 30 27 28 26 20 18 16 19 19 19 25 26 27 31 25 24 22 20 19 17 13 15 21 26 28 25 26 28 29 30 30 29 31
36 33 33 34 34 36 36 34 33 33 36 35 34 37 38 34 32 27 22 23 24 23 21 25 32 23 24 19 21 22 23 26 24 24 27 30 33 30 28 34 34 35 37 36 36
34 35 35 32 35 38 36 32 27 29 36 44 41 43 40 37 38 35 32 28 27 24 27 30 24 14 17 25 26 27 26 25 22 22 26 29 38 38 37 40 42 43 44 45 42
42 39 41 39 41 34 37 26 23 24 26 44 43 48 47 43 45 41 35 33 35 33 29 29 31 30 26 25 23 27 24 21 23 23 18 15 11 24 17 20 31 35 34 37 34
43 42 42 45 42 38 32 22 21 19 6 16 26 35 40 37 40 42 42 43 42 38 35 30 29 29 31 35 27 28 26 23 25 26 25 32 24 33 27 28 39 42 38 39 37
43 45 42 40 44 44 35 32 25 16 16 14 23 29 35 33 37 37 34 41 43 41 39 35 33 23 26 27 27 28 25 23 22 22 12 30 30 26 31 29 29 35 37 38 35
42 44 47 45 46 41 33 40 23 15 28 31 27 26 24 31 38 39 39 43 42 35 38 37 43 37 33 28 24 24 19 3 4 5 8 9 20 41 10 17 21 26 29 30 27
34 36 42 43 41 36 41 38 14 40 47 23 18 24 29 30 38 40 41 41 46 42 16 31 15 32 40 46 33 27 32 13 7 5 4 9 14 18 23 22 31 30 26 26 25
45 40 41 44 48 42 45 46 36 49 40 45 25 22 30 31 26 37 43 46 45 47 36 18 18 17 20 12 31 20 30 30 18 19 8 15 31 37 32 34 31 27 30 26 28
41 40 49 40 36 44 52 54 59 53 19 23 47 28 28 34 33 24 32 37 48 43 43 23 12 20 24 23 25 24 16 17 23 3 6 9 25 27 13 21 25 26 28 29 26
34 39 48 46 36 44 56 57 66 56 32 38 41 37 29 23 28 33 32 32 24 34 34 41 29 15 24 28 30 38 28 15 16 17 4 5 13 16 16 20 20 21 25 28 28
32 33 40 39 44 49 57 64 62 50 45 32 44 34 50 42 39 42 48 40 27 31 34 41 28 22 31 27 26 33 36 41 23 12 26 24 45 20 11 10 14 20 23 27 31
35 35 37 36 37 49 51 56 62 49 57 50 46 47 44 35 32 45 42 40 38 37 34 38 28 17 16 22 25 34 40 42 38 30 41 13 34 12 18 26 20 21 22 28 33
33 30 37 39 39 31 45 56 55 66 60 55 58 44 39 39 42 36 36 38 39 41 33 29 34 36 34 21 23 40 47 49 46 40 29 54 47 33 27 22 18 19 26 27 29
34 35 36 25 43 47 41 36 46 56 59 59 49 55 55 39 45 47 42 25 35 35 34 42 45 45 54 46 30 21 28 38 55 61 37 59 51 48 45 45 44 33 29 32 32
35 36 38 40 34 38 34 37 33 28 48 51 57 58 58 55 60 59 53 45 36 39 41 43 38 42 58 54 53 52 40 34 37 42 54 56 65 39 36 33 37 40 38 38 38
33 38 39 28 32 36 42 44 49 40 40 44 52 54 57 61 63 60 52 47 49 51 44 47 46 37 39 34 36 27 70 64 61 58 56 58 70 50 46 47 42 35 36 35 37